DW6665 Seattle WA US current weather conditions

sailwx.info

Wind from 269 at 0 knots gusting 0

Air temperature 15.6° C
Dewpoint 10.3° C

Last reported at 2020-Aug-04 13:01 UTC.
Time now 2020-Aug-04 14:05 UTC

Location: N 47°33' W 122°23'.
View on Google Maps.

See reports from other nearby stations

  
Tides and Currents Weather Stations Pressure Air Temp Water Temp Dewpoint Dewpoint Depression Visibility Wind Speed Wind Dir Waves Ship Positions
date/time (UTC)wind fromknots sea level pressurealtimeterstation pressurevisibilityair tempwater tempwave heightnotes
2020-Aug-04 13:01 269 0 gusting 0 15.6
2020-Aug-04 12:45 322 0 gusting 2 15.6
2020-Aug-04 12:30 302 0 gusting 2 16.1
2020-Aug-04 12:15 353 0 gusting 2 16.1
2020-Aug-04 12:01 022 1 gusting 2 16.1
2020-Aug-04 11:45 316 1 gusting 1 16.1
2020-Aug-04 11:30 072 16.1
2020-Aug-04 11:15 072 0 gusting 1 16.7
2020-Aug-04 11:00 068 0 gusting 2 16.7
2020-Aug-04 10:45 064 0 gusting 2 16.7
2020-Aug-04 10:30 041 1 gusting 2 16.7
2020-Aug-04 10:15 066 0 gusting 2 16.7
2020-Aug-04 10:00 081 0 gusting 2 16.7
2020-Aug-04 09:45 076 0 gusting 3 17.2
2020-Aug-04 09:30 070 1 gusting 2 17.2
2020-Aug-04 09:15 084 0 gusting 2 17.2
2020-Aug-04 09:00 072 0 gusting 3 17.2
2020-Aug-04 08:45 068 0 gusting 3 17.8
2020-Aug-04 08:30 082 1 gusting 3 17.8
2020-Aug-04 08:15 082 1 gusting 3 17.8
2020-Aug-04 08:00 051 0 gusting 2 17.8
2020-Aug-04 07:45 072 0 gusting 2 18.3
2020-Aug-04 07:30 049 0 gusting 2 18.3
2020-Aug-04 07:15 083 0 gusting 1 18.3
2020-Aug-04 07:00 066 0 gusting 1 18.9
2020-Aug-04 06:45 063 2 gusting 4 19.4
2020-Aug-04 06:30 057 2 gusting 4 19.4
2020-Aug-04 06:16 037 1 gusting 5 19.4
2020-Aug-04 06:00 330 1 gusting 3 19.4
2020-Aug-04 05:45 023 0 gusting 2 20.0
2020-Aug-04 05:30 082 1 gusting 6 20.0
2020-Aug-04 05:15 333 3 gusting 6 20.0
2020-Aug-04 05:00 053 2 gusting 7 20.6
2020-Aug-04 04:45 341 2 gusting 5 20.6
2020-Aug-04 04:30 340 2 gusting 6 20.6
2020-Aug-04 04:15 314 2 gusting 6 21.1
2020-Aug-04 04:00 319 2 gusting 5 21.1
2020-Aug-04 03:45 003 2 gusting 6 21.7
2020-Aug-04 03:30 328 3 gusting 7 21.7
2020-Aug-04 03:15 332 2 gusting 6 22.2
2020-Aug-04 03:00 027 3 gusting 9 22.2
2020-Aug-04 02:45 050 5 gusting 8 22.8
2020-Aug-04 02:30 027 4 gusting 7 23.3
2020-Aug-04 02:15 345 3 gusting 6 23.9
2020-Aug-04 02:00 352 4 gusting 9 23.3
2020-Aug-04 01:45 358 4 gusting 7 23.9
2020-Aug-04 01:30 293 5 gusting 10 24.4
2020-Aug-04 01:15 319 4 gusting 7 25.0
2020-Aug-04 01:00 330 4 gusting 8 24.4
2020-Aug-04 00:45 295 5 gusting 7 24.4
2020-Aug-04 00:30 315 4 gusting 10 24.4
2020-Aug-04 00:15 308 4 gusting 9 25.0
2020-Aug-04 00:00 308 5 gusting 8 25.0
2020-Aug-03 23:45 312 4 gusting 7 25.0
2020-Aug-03 23:30 322 2 gusting 6 25.0
2020-Aug-03 23:15 278 3 gusting 6 25.0
2020-Aug-03 23:00 253 3 gusting 6 25.0
2020-Aug-03 22:45 298 4 gusting 6 25.0
2020-Aug-03 22:30 262 2 gusting 6 25.0
2020-Aug-03 22:15 250 3 gusting 6 24.4
2020-Aug-03 22:00 203 3 gusting 6 24.4
2020-Aug-03 21:45 275 3 gusting 6 23.9
2020-Aug-03 21:30 218 3 gusting 6 23.9
2020-Aug-03 21:15 252 3 gusting 6 24.4
2020-Aug-03 21:00 194 1 gusting 5 24.4
2020-Aug-03 20:45 255 2 gusting 5 23.3
2020-Aug-03 20:30 269 2 gusting 6 22.8
2020-Aug-03 20:15 262 4 gusting 6 22.8
2020-Aug-03 20:00 266 1 gusting 5 23.3
2020-Aug-03 19:45 259 2 gusting 6 22.8
2020-Aug-03 19:30 221 3 gusting 5 22.8
2020-Aug-03 19:15 271 4 gusting 7 22.2
2020-Aug-03 19:00 153 2 gusting 5 21.7
2020-Aug-03 18:45 122 3 gusting 4 21.1
2020-Aug-03 18:30 259 2 gusting 6 20.6
2020-Aug-03 18:15 231 1 gusting 4 20.0
2020-Aug-03 18:00 233 1 gusting 4 20.0
2020-Aug-03 17:45 221 1 gusting 5 19.4
2020-Aug-03 17:30 137 3 gusting 6 19.4
2020-Aug-03 17:15 262 2 gusting 7 18.9
2020-Aug-03 17:00 224 2 gusting 4 17.8
2020-Aug-03 16:45 133 1 gusting 6 17.8
2020-Aug-03 16:30 117 3 gusting 6 17.2
2020-Aug-03 16:15 248 2 gusting 5 16.7
2020-Aug-03 16:00 212 1 gusting 6 16.7
2020-Aug-03 15:45 191 2 gusting 6 16.7
2020-Aug-03 15:30 174 4 gusting 6 16.7
2020-Aug-03 15:15 225 1 gusting 4 16.7
2020-Aug-03 15:00 159 0 gusting 5 16.7
2020-Aug-03 14:45 194 0 gusting 5 16.7
2020-Aug-03 14:30 132 1 gusting 6 16.1
2020-Aug-03 14:15 123 2 gusting 6 16.1
2020-Aug-03 14:00 167 1 gusting 5 16.1
2020-Aug-03 13:45 137 1 gusting 3 15.6
2020-Aug-03 13:30 165 15.0
2020-Aug-03 13:15 210 15.0
2020-Aug-03 13:00 201 15.0
2020-Aug-03 12:45 236 1 gusting 3 15.0
2020-Aug-03 12:30 186 0 gusting 4 15.0
2020-Aug-03 12:15 212 1 gusting 3 15.0
2020-Aug-03 12:00 203 0 gusting 1 15.0
2020-Aug-03 11:45 154 15.0
2020-Aug-03 11:30 212 0 gusting 2 15.6
2020-Aug-03 11:15 208 15.6
2020-Aug-03 11:00 141 0 gusting 2 15.6
2020-Aug-03 10:45 148 15.6
2020-Aug-03 10:30 148 15.6
2020-Aug-03 10:15 236 15.6
2020-Aug-03 10:00 236 15.6
2020-Aug-03 09:45 236 15.6
2020-Aug-03 09:30 236 15.6
2020-Aug-03 09:15 235 15.6
2020-Aug-03 09:00 259 16.1
2020-Aug-03 08:45 221 16.1
2020-Aug-03 08:30 158 16.7
2020-Aug-03 08:15 158 16.1
2020-Aug-03 08:00 158 17.2
2020-Aug-03 07:45 158 17.2
2020-Aug-03 07:30 158 17.2
2020-Aug-03 07:15 157 17.8
2020-Aug-03 07:00 257 17.8
2020-Aug-03 06:45 238 18.3
2020-Aug-03 06:30 326 18.9
2020-Aug-03 06:15 010 0 gusting 3 18.9
2020-Aug-03 06:00 326 1 gusting 3 18.9
2020-Aug-03 05:45 312 1 gusting 4 18.3
2020-Aug-03 05:30 276 0 gusting 1 18.3
2020-Aug-03 05:15 295 1 gusting 2 18.9
2020-Aug-03 05:00 264 1 gusting 3 18.9
2020-Aug-03 04:45 310 0 gusting 5 18.9
2020-Aug-03 04:30 253 1 gusting 5 18.9
2020-Aug-03 04:15 288 2 gusting 6 19.4
2020-Aug-03 04:01 338 2 gusting 6 20.0
2020-Aug-03 03:45 029 3 gusting 5 20.0
2020-Aug-03 03:30 356 3 gusting 6 20.6
2020-Aug-03 03:15 325 0 gusting 5 21.7
2020-Aug-03 03:00 330 2 gusting 6 21.7
2020-Aug-03 02:45 305 4 gusting 8 22.2
2020-Aug-03 02:30 304 4 gusting 6 23.3
2020-Aug-03 02:15 296 3 gusting 6 23.9
2020-Aug-03 02:00 282 3 gusting 6 24.4
2020-Aug-03 01:45 289 3 gusting 6 24.4
2020-Aug-03 01:30 289 3 gusting 6 24.4
2020-Aug-03 01:15 326 3 gusting 6 24.4
2020-Aug-03 01:00 308 1 gusting 7 24.4
2020-Aug-03 00:45 343 4 gusting 7 24.4
2020-Aug-03 00:30 267 3 gusting 6 25.0
2020-Aug-03 00:15 262 2 gusting 5 25.6
2020-Aug-03 00:00 274 2 gusting 5 25.6
2020-Aug-02 23:45 274 1 gusting 5 25.0
2020-Aug-02 23:30 278 1 gusting 5 25.0
2020-Aug-02 23:15 221 2 gusting 5 25.0
2020-Aug-02 23:00 232 3 gusting 6 25.6
2020-Aug-02 22:45 190 2 gusting 6 25.6
2020-Aug-02 22:30 288 2 gusting 7 25.0
2020-Aug-02 22:15 215 4 gusting 6 25.0
2020-Aug-02 22:00 195 3 gusting 7 24.4
2020-Aug-02 21:45 305 4 gusting 7 24.4
2020-Aug-02 21:30 262 1 gusting 6 24.4
2020-Aug-02 21:15 253 3 gusting 7 23.9
2020-Aug-02 21:00 198 3 gusting 6 23.9
2020-Aug-02 20:45 262 1 gusting 7 23.3
2020-Aug-02 20:30 215 0 gusting 5 23.3
2020-Aug-02 20:15 122 1 gusting 5 22.8
2020-Aug-02 20:00 204 0 gusting 6 23.3
2020-Aug-02 19:45 259 2 gusting 6 22.8
2020-Aug-02 19:30 235 5 gusting 6 21.7
2020-Aug-02 19:16 142 4 gusting 7 21.7
2020-Aug-02 19:00 280 4 gusting 8 20.6
2020-Aug-02 18:45 226 5 gusting 9 20.6
2020-Aug-02 18:30 181 2 gusting 6 20.6
2020-Aug-02 18:15 253 6 gusting 8 20.0
2020-Aug-02 18:00 222 4 gusting 8 19.4
2020-Aug-02 17:45 239 6 gusting 10 19.4
2020-Aug-02 17:30 195 4 gusting 8 20.0
2020-Aug-02 17:15 193 3 gusting 10 18.9
2020-Aug-02 17:00 232 3 gusting 8 18.3
2020-Aug-02 16:45 210 3 gusting 6 18.3
2020-Aug-02 16:30 224 3 gusting 6 17.8
2020-Aug-02 16:15 256 2 gusting 6 17.2
2020-Aug-02 16:00 131 2 gusting 6 17.2
2020-Aug-02 15:45 149 1 gusting 6 16.7
2020-Aug-02 15:30 219 1 gusting 6 16.1
2020-Aug-02 15:15 229 3 gusting 6 16.1
2020-Aug-02 15:00 219 1 gusting 5 16.1
2020-Aug-02 14:45 224 0 gusting 3 15.6
2020-Aug-02 14:30 225 1 gusting 5 15.6
2020-Aug-02 14:15 232 0 gusting 1 15.6
2020-Aug-02 14:01 157 16.1